| time (UTC) | temp F | wind direction | speed knots | gust knots | rain 1hr in | rain 24hr in | rain mn in | humidity % | barometer mb |
| 20260505004728 | 67 | 115 | 0.9 | 1.7 | 0.00 | 0.00 | 0.00 | 58 | 1010.6 |
| 20260505004228 | 67 | 115 | 0.9 | 1.7 | 0.00 | 0.00 | 0.00 | 58 | 1010.5 |
| 20260505003728 | 68 | 109 | 0.9 | 4.3 | 0.00 | 0.00 | 0.00 | 58 | 1010.5 |
| 20260505003228 | 68 | 99 | 1.7 | 5.2 | 0.00 | 0.00 | 0.00 | 57 | 1010.4 |
| 20260505002728 | 68 | 93 | 0.9 | 1.7 | 0.00 | 0.00 | 0.00 | 57 | 1010.4 |
| 20260505002228 | 68 | 86 | 0.9 | 2.6 | 0.00 | 0.00 | 0.00 | 56 | 1010.4 |
| 20260505001728 | 68 | 113 | 1.7 | 1.7 | 0.00 | 0.00 | 0.00 | 55 | 1010.3 |
| 20260505001227 | 68 | 120 | 1.7 | 2.6 | 0.00 | 0.00 | 0.00 | 54 | 1010.4 |
| 20260505000727 | 69 | 102 | 1.7 | 4.3 | 0.00 | 0.00 | 0.00 | 53 | 1010.3 |
| 20260505000227 | 69 | 110 | 2.6 | 4.3 | 0.00 | 0.00 | 0.00 | 52 | 1010.3 |
| 20260504235727 | 69 | 96 | 2.6 | 2.6 | 0.00 | 0.00 | 0.00 | 52 | 1010.5 |
| 20260504235227 | 69 | 110 | 0.9 | 2.6 | 0.00 | 0.00 | 0.00 | 51 | 1010.4 |
| 20260504234727 | 70 | 103 | 2.6 | 6.1 | 0.00 | 0.00 | 0.00 | 49 | 1010.5 |
| 20260504234227 | 70 | 100 | 0.9 | 4.3 | 0.00 | 0.00 | 0.00 | 49 | 1010.4 |
| 20260504233726 | 71 | 109 | 0.9 | 2.6 | 0.00 | 0.00 | 0.00 | 47 | 1010.3 |
| 20260504233226 | 71 | 100 | 0.9 | 1.7 | 0.00 | 0.00 | 0.00 | 46 | 1010.4 |
| 20260504232726 | 71 | 100 | 1.7 | 5.2 | 0.00 | 0.00 | 0.00 | 46 | 1010.3 |
| 20260504232226 | 71 | 129 | 0.9 | 1.7 | 0.00 | 0.00 | 0.00 | 46 | 1010.3 |
| 20260504231726 | 72 | 110 | 0.9 | 2.6 | 0.00 | 0.00 | 0.00 | 46 | 1010.3 |
| 20260504231226 | 72 | 90 | 1.7 | 4.3 | 0.00 | 0.00 | 0.00 | 46 | 1010.4 |
| 20260504230725 | 72 | 113 | 0.9 | 2.6 | 0.00 | 0.00 | 0.00 | 47 | 1010.3 |
| 20260504230225 | 72 | 93 | 1.7 | 2.6 | 0.00 | 0.00 | 0.00 | 48 | 1010.3 |
| 20260504225725 | 72 | 105 | 1.7 | 7.8 | 0.00 | 0.00 | 0.00 | 47 | 1010.3 |
| 20260504225225 | 73 | 102 | 2.6 | 4.3 | 0.00 | 0.00 | 0.00 | 47 | 1010.3 |
| 20260504224725 | 73 | 219 | 0.9 | 5.2 | 0.00 | 0.00 | 0.00 | 46 | 1010.3 |
| 20260504224225 | 73 | 71 | 4.3 | 7.0 | 0.00 | 0.00 | 0.00 | 46 | 1010.2 |
| 20260504223725 | 74 | 224 | 1.7 | 2.6 | 0.00 | 0.00 | 0.00 | 46 | 1010.2 |
| 20260504223224 | 74 | 81 | 1.7 | 4.3 | 0.00 | 0.00 | 0.00 | 47 | 1010.2 |
| 20260504222724 | 74 | 74 | 1.7 | 4.3 | 0.00 | 0.00 | 0.00 | 45 | 1010.3 |
| 20260504222224 | 74 | 90 | 1.7 | 4.3 | 0.00 | 0.00 | 0.00 | 47 | 1010.3 |
| 20260504221724 | 74 | 139 | 1.7 | 2.6 | 0.00 | 0.00 | 0.00 | 45 | 1010.1 |
| 20260504221224 | 74 | 95 | 0.9 | 1.7 | 0.00 | 0.00 | 0.00 | 47 | 1010.2 |
| 20260504220724 | 75 | 108 | 1.7 | 4.3 | 0.00 | 0.00 | 0.00 | 45 | 1010.2 |
| 20260504220224 | 75 | 112 | 1.7 | 4.3 | 0.00 | 0.00 | 0.00 | 44 | 1010.2 |
| 20260504215723 | 75 | 116 | 0.9 | 2.6 | 0.00 | 0.00 | 0.00 | 45 | 1010.2 |
| 20260504215223 | 75 | 97 | 0.9 | 2.6 | 0.00 | 0.00 | 0.00 | 45 | 1010.3 |
| 20260504214723 | 75 | 99 | 1.7 | 6.1 | 0.00 | 0.00 | 0.00 | 44 | 1010.3 |
| 20260504214223 | 75 | 125 | 1.7 | 5.2 | 0.00 | 0.00 | 0.00 | 43 | 1010.2 |
| 20260504213723 | 75 | 259 | 1.7 | 5.2 | 0.00 | 0.00 | 0.00 | 42 | 1010.3 |
| 20260504213223 | 75 | 146 | 1.7 | 6.1 | 0.00 | 0.00 | 0.00 | 43 | 1010.3 |
| 20260504212722 | 75 | 93 | 0.9 | 2.6 | 0.00 | 0.00 | 0.00 | 43 | 1010.3 |
| 20260504212222 | 75 | 89 | 0.9 | 4.3 | 0.00 | 0.00 | 0.00 | 44 | 1010.3 |
| 20260504211722 | 75 | 91 | 2.6 | 2.6 | 0.00 | 0.00 | 0.00 | 43 | 1010.4 |
| 20260504211222 | 75 | 105 | 1.7 | 4.3 | 0.00 | 0.00 | 0.00 | 44 | 1010.4 |
| 20260504210722 | 75 | 226 | 1.7 | 4.3 | 0.00 | 0.00 | 0.00 | 43 | 1010.5 |
| 20260504210222 | 75 | 122 | 1.7 | 4.3 | 0.00 | 0.00 | 0.00 | 43 | 1010.5 |
| 20260504205722 | 75 | 276 | 1.7 | 2.6 | 0.00 | 0.00 | 0.00 | 42 | 1010.5 |
| 20260504205221 | 75 | 90 | 0.9 | 2.6 | 0.00 | 0.00 | 0.00 | 43 | 1010.5 |
| 20260504204721 | 75 | 213 | 1.7 | 7.8 | 0.00 | 0.00 | 0.00 | 43 | 1010.5 |
| 20260504204221 | 75 | 250 | 1.7 | 4.3 | 0.00 | 0.00 | 0.00 | 42 | 1010.6 |
| 20260504203721 | 75 | 108 | 2.6 | 4.3 | 0.00 | 0.00 | 0.00 | 42 | 1010.6 |
| 20260504203221 | 75 | 143 | 1.7 | 5.2 | 0.00 | 0.00 | 0.00 | 42 | 1010.7 |
| 20260504202721 | 75 | 101 | 2.6 | 4.3 | 0.00 | 0.00 | 0.00 | 41 | 1010.8 |
| 20260504202220 | 74 | 103 | 2.6 | 4.3 | 0.00 | 0.00 | 0.00 | 42 | 1011.0 |
| 20260504201720 | 74 | 144 | 2.6 | 7.0 | 0.00 | 0.00 | 0.00 | 42 | 1011.0 |
| 20260504201220 | 74 | 103 | 2.6 | 2.6 | 0.00 | 0.00 | 0.00 | 42 | 1011.1 |
| 20260504200720 | 74 | 153 | 1.7 | 4.3 | 0.00 | 0.00 | 0.00 | 41 | 1011.1 |
| 20260504200220 | 74 | 176 | 0.9 | 6.1 | 0.00 | 0.00 | 0.00 | 42 | 1011.2 |
| 20260504195720 | 74 | 161 | 1.7 | 2.6 | 0.00 | 0.00 | 0.00 | 43 | 1011.2 |
| 20260504195220 | 74 | 198 | 0.9 | 2.6 | 0.00 | 0.00 | 0.00 | 42 | 1011.3 |
| 20260504194719 | 74 | 338 | 1.7 | 4.3 | 0.00 | 0.00 | 0.00 | 43 | 1011.3 |
| 20260504194219 | 74 | 113 | 1.7 | 2.6 | 0.00 | 0.00 | 0.00 | 42 | 1011.4 |
| 20260504193719 | 74 | 180 | 1.7 | 2.6 | 0.00 | 0.00 | 0.00 | 43 | 1011.5 |
| 20260504193219 | 74 | 214 | 1.7 | 4.3 | 0.00 | 0.00 | 0.00 | 41 | 1011.5 |
| 20260504192719 | 74 | 138 | 1.7 | 2.6 | 0.00 | 0.00 | 0.00 | 43 | 1011.6 |
| 20260504192219 | 74 | 245 | 2.6 | 6.1 | 0.00 | 0.00 | 0.00 | 42 | 1011.6 |
| 20260504191719 | 74 | 92 | 0.9 | 2.6 | 0.00 | 0.00 | 0.00 | 45 | 1011.7 |
| 20260504191218 | 73 | 184 | 1.7 | 2.6 | 0.00 | 0.00 | 0.00 | 43 | 1011.8 |
| 20260504190718 | 73 | 256 | 1.7 | 4.3 | 0.00 | 0.00 | 0.00 | 43 | 1011.9 |
| 20260504190218 | 73 | 163 | 1.7 | 8.7 | 0.00 | 0.00 | 0.00 | 45 | 1012.0 |
| 20260504185718 | 73 | 347 | 0.9 | 1.7 | 0.00 | 0.00 | 0.00 | 45 | 1012.1 |
| 20260504185218 | 72 | 91 | 1.7 | 4.3 | 0.00 | 0.00 | 0.00 | 44 | 1012.2 |
| 20260504184718 | 72 | 156 | 2.6 | 6.1 | 0.00 | 0.00 | 0.00 | 44 | 1012.2 |
| 20260504184217 | 73 | 95 | 0.9 | 7.0 | 0.00 | 0.00 | 0.00 | 46 | 1012.3 |
| 20260504183717 | 72 | 241 | 4.3 | 7.0 | 0.00 | 0.00 | 0.00 | 43 | 1012.3 |
| 20260504183217 | 72 | 253 | 1.7 | 4.3 | 0.00 | 0.00 | 0.00 | 42 | 1012.3 |
| 20260504182717 | 72 | 106 | 1.7 | 2.6 | 0.00 | 0.00 | 0.00 | 42 | 1012.4 |
| 20260504182217 | 72 | 155 | 1.7 | 6.1 | 0.00 | 0.00 | 0.00 | 42 | 1012.4 |
| 20260504181717 | 72 | 93 | 1.7 | 2.6 | 0.00 | 0.00 | 0.00 | 42 | 1012.6 |
| 20260504181217 | 72 | 252 | 0.9 | 2.6 | 0.00 | 0.00 | 0.00 | 43 | 1012.7 |
| 20260504180716 | 71 | 254 | 0.9 | 2.6 | 0.00 | 0.00 | 0.00 | 42 | 1012.7 |
| 20260504180216 | 72 | 226 | 2.6 | 7.0 | 0.00 | 0.00 | 0.00 | 40 | 1012.8 |
| 20260504175716 | 71 | 203 | 1.7 | 4.3 | 0.00 | 0.00 | 0.00 | 41 | 1012.7 |
| 20260504175216 | 71 | 98 | 4.3 | 5.2 | 0.00 | 0.00 | 0.00 | 42 | 1012.8 |
| 20260504174716 | 71 | 249 | 5.2 | 8.7 | 0.00 | 0.00 | 0.00 | 40 | 1012.9 |
| 20260504174216 | 70 | 244 | 1.7 | 2.6 | 0.00 | 0.00 | 0.00 | 39 | 1013.0 |
| 20260504173645 | 70 | 224 | 0.9 | 2.6 | 0.00 | 0.00 | 0.00 | 43 | 1012.9 |
| 20260504173145 | 70 | 236 | 1.7 | 2.6 | 0.00 | 0.00 | 0.00 | 44 | 1013.1 |
| 20260504172645 | 70 | 261 | 2.6 | 7.0 | 0.00 | 0.00 | 0.00 | 48 | 1013.0 |
| 20260504172145 | 70 | 268 | 2.6 | 5.2 | 0.00 | 0.00 | 0.00 | 46 | 1013.2 |
| 20260504171645 | 70 | 129 | 0.9 | 2.6 | 0.00 | 0.00 | 0.00 | 47 | 1013.2 |
| 20260504171145 | 70 | 249 | 2.6 | 6.1 | 0.00 | 0.00 | 0.00 | 47 | 1013.2 |
| 20260504170645 | 70 | 257 | 4.3 | 7.0 | 0.00 | 0.00 | 0.00 | 44 | 1013.2 |
| 20260504170144 | 70 | 259 | 1.7 | 5.2 | 0.00 | 0.00 | 0.00 | 46 | 1013.2 |
| 20260504160143 | 66 | 180 | 0.9 | 1.7 | 0.00 | 0.00 | 0.00 | 49 | 1014.0 |
| 20260504151141 | 64 | 85 | 0.9 | 1.7 | 0.00 | 0.00 | 0.00 | 61 | 1014.4 |
| 20260504150641 | 63 | 261 | 1.7 | 2.6 | 0.00 | 0.00 | 0.00 | 59 | 1014.5 |
| 20260504150141 | 64 | 91 | 0.9 | 0.9 | 0.00 | 0.00 | 0.00 | 59 | 1014.5 |
| 20260504141139 | 61 | 264 | 1.7 | 2.6 | 0.00 | 0.00 | 0.00 | 63 | 1014.8 |
| 20260504140639 | 61 | 260 | 1.7 | 4.3 | 0.00 | 0.00 | 0.00 | 61 | 1014.9 |
| 20260504140139 | 61 | 265 | 1.7 | 7.0 | 0.00 | 0.00 | 0.00 | 61 | 1014.9 |
| 20260504130637 | 60 | 226 | 4.3 | 2.6 | 0.00 | 0.00 | 0.00 | 61 | 1015.0 |
| 20260504130137 | 60 | 171 | 0.9 | 1.7 | 0.00 | 0.00 | 0.00 | 62 | 1015.1 |
| 20260504120135 | 58 | 86 | 0.0 | 0.9 | 0.00 | 0.00 | 0.00 | 65 | 1015.5 |
| 20260504110634 | 56 | 254 | 0.9 | 0.9 | 0.00 | 0.00 | 0.00 | 69 | 1015.8 |
| 20260504110134 | 56 | 114 | 0.9 | 0.9 | 0.00 | 0.00 | 0.00 | 69 | 1015.7 |
| 20260504100132 | 56 | 248 | 1.7 | 2.6 | 0.00 | 0.00 | 0.00 | 72 | 1015.5 |
| 20260504090130 | 56 | 238 | 1.7 | 2.6 | 0.00 | 0.00 | 0.00 | 76 | 1015.7 |
| 20260504081629 | 55 | 272 | 0.0 | 0.9 | 0.00 | 0.00 | 0.00 | 79 | 1015.7 |
| 20260504081128 | 55 | 215 | 0.9 | 1.7 | 0.00 | 0.00 | 0.00 | 78 | 1015.7 |
| 20260504080628 | 55 | 228 | 0.0 | 0.0 | 0.00 | 0.00 | 0.00 | 77 | 1015.8 |
| 20260504080128 | 55 | 219 | 1.7 | 2.6 | 0.00 | 0.00 | 0.00 | 77 | 1015.8 |
| 20260504070126 | 55 | 244 | 2.6 | 4.3 | 0.00 | 0.00 | 0.00 | 73 | 1015.9 |
| 20260504060125 | 54 | 30 | 0.0 | 0.0 | 0.00 | 0.00 | 0.00 | 72 | 1015.9 |
| 20260504050623 | 54 | 53 | 0.0 | 0.9 | 0.00 | 0.00 | 0.00 | 72 | 1015.7 |
| 20260504050123 | 54 | 53 | 0.0 | 0.9 | 0.00 | 0.00 | 0.00 | 71 | 1015.8 |
| 20260504045623 | 54 | 224 | 0.0 | 0.9 | 0.00 | 0.00 | 0.00 | 71 | 1015.9 |
| 20260504045123 | 54 | 224 | 0.0 | 0.0 | 0.00 | 0.00 | 0.00 | 72 | 1016.0 |
| 20260504044622 | 54 | 274 | 1.7 | 2.6 | 0.00 | 0.00 | 0.00 | 72 | 1016.0 |
| 20260504044122 | 53 | 8 | 0.0 | 1.7 | 0.00 | 0.00 | 0.00 | 72 | 1015.9 |
| 20260504043622 | 52 | 252 | 0.0 | 2.6 | 0.00 | 0.00 | 0.00 | 75 | 1016.0 |
| 20260504043122 | 52 | 224 | 0.0 | 0.9 | 0.00 | 0.00 | 0.00 | 77 | 1016.0 |
| 20260504042622 | 52 | 225 | 0.0 | 0.9 | 0.00 | 0.00 | 0.00 | 78 | 1015.9 |
| 20260504042122 | 52 | 323 | 0.0 | 0.0 | 0.00 | 0.00 | 0.00 | 78 | 1015.8 |
| 20260504041621 | 52 | 323 | 0.0 | 0.9 | 0.00 | 0.00 | 0.00 | 77 | 1015.7 |
| 20260504041121 | 51 | 323 | 0.0 | 0.0 | 0.00 | 0.00 | 0.00 | 77 | 1015.7 |
| 20260504040621 | 51 | 97 | 0.0 | 0.9 | 0.00 | 0.00 | 0.00 | 77 | 1015.8 |
| 20260504040121 | 51 | 97 | 0.0 | 0.9 | 0.00 | 0.00 | 0.00 | 78 | 1015.7 |
| 20260504035621 | 50 | 97 | 0.0 | 0.9 | 0.00 | 0.00 | 0.00 | 80 | 1015.6 |
| 20260504035121 | 49 | 97 | 0.0 | 0.0 | 0.00 | 0.00 | 0.00 | 81 | 1015.6 |
| 20260504034620 | 50 | 82 | 0.0 | 0.9 | 0.00 | 0.00 | 0.00 | 79 | 1015.5 |
| 20260504034120 | 49 | 82 | 0.9 | 1.7 | 0.00 | 0.00 | 0.00 | 81 | 1015.5 |
| 20260504033620 | 49 | 82 | 0.0 | 0.0 | 0.00 | 0.00 | 0.00 | 82 | 1015.5 |
| 20260504033120 | 48 | 195 | 0.0 | 0.0 | 0.00 | 0.00 | 0.00 | 83 | 1015.4 |
| 20260504032620 | 48 | 197 | 0.0 | 0.0 | 0.00 | 0.00 | 0.00 | 83 | 1015.4 |
| 20260504032120 | 48 | 215 | 0.0 | 0.0 | 0.00 | 0.00 | 0.00 | 84 | 1015.3 |
| 20260504031620 | 48 | 215 | 0.0 | 0.9 | 0.00 | 0.00 | 0.00 | 83 | 1015.3 |
| 20260504031119 | 47 | 215 | 0.0 | 0.0 | 0.00 | 0.00 | 0.00 | 84 | 1015.3 |
| 20260504030619 | 47 | 259 | 0.0 | 0.9 | 0.00 | 0.00 | 0.00 | 82 | 1015.3 |
| 20260504030119 | 47 | 259 | 0.0 | 0.9 | 0.00 | 0.00 | 0.00 | 82 | 1015.3 |
| 20260504025619 | 47 | 259 | 0.0 | 0.9 | 0.00 | 0.00 | 0.00 | 82 | 1015.3 |
| 20260504025119 | 47 | 259 | 0.0 | 0.9 | 0.00 | 0.00 | 0.00 | 82 | 1015.3 |
| 20260504024619 | 47 | 259 | 0.0 | 0.0 | 0.00 | 0.00 | 0.00 | 81 | 1015.3 |
| 20260504024119 | 47 | 259 | 0.0 | 0.0 | 0.00 | 0.00 | 0.00 | 79 | 1015.3 |
| 20260504023548 | 47 | 259 | 0.0 | 0.0 | 0.00 | 0.00 | 0.00 | 78 | 1015.2 |
| 20260504023048 | 47 | 259 | 0.0 | 0.0 | 0.00 | 0.00 | 0.00 | 77 | 1015.3 |
| 20260504022548 | 48 | 259 | 0.0 | 0.0 | 0.00 | 0.00 | 0.00 | 76 | 1015.3 |
| 20260504022048 | 48 | 259 | 0.0 | 0.9 | 0.00 | 0.00 | 0.00 | 77 | 1015.2 |
| 20260504021548 | 48 | 259 | 0.0 | 0.9 | 0.00 | 0.00 | 0.00 | 76 | 1015.3 |
| 20260504021048 | 48 | 259 | 0.9 | 1.7 | 0.00 | 0.00 | 0.00 | 75 | 1015.2 |
| 20260504020547 | 48 | 259 | 0.0 | 0.9 | 0.00 | 0.00 | 0.00 | 75 | 1015.2 |
| 20260504020047 | 48 | 259 | 0.0 | 0.0 | 0.00 | 0.00 | 0.00 | 75 | 1015.2 |
| 20260504015547 | 49 | 259 | 0.0 | 0.0 | 0.00 | 0.00 | 0.00 | 77 | 1015.2 |
| 20260504015047 | 49 | 259 | 0.0 | 0.9 | 0.00 | 0.00 | 0.00 | 75 | 1015.1 |
| 20260504014547 | 49 | 259 | 0.9 | 0.9 | 0.00 | 0.00 | 0.00 | 75 | 1015.1 |
| 20260504014047 | 49 | 259 | 0.0 | 0.9 | 0.00 | 0.00 | 0.00 | 75 | 1015.1 |
| 20260504013547 | 50 | 259 | 0.0 | 0.9 | 0.00 | 0.00 | 0.00 | 75 | 1015.1 |
| 20260504013046 | 50 | 259 | 0.0 | 0.9 | 0.00 | 0.00 | 0.00 | 74 | 1015.0 |
| 20260504012546 | 51 | 259 | 0.9 | 0.9 | 0.00 | 0.00 | 0.00 | 74 | 1015.0 |
| 20260504012046 | 51 | 259 | 0.0 | 0.9 | 0.00 | 0.00 | 0.00 | 72 | 1015.0 |
| 20260504011546 | 52 | 259 | 0.0 | 0.9 | 0.00 | 0.00 | 0.00 | 70 | 1014.9 |
| 20260504011046 | 53 | 259 | 0.0 | 0.0 | 0.00 | 0.00 | 0.00 | 68 | 1014.9 |
| 20260504010546 | 54 | 259 | 0.0 | 0.9 | 0.00 | 0.00 | 0.00 | 66 | 1014.9 |
| 20260504010045 | 55 | 259 | 0.9 | 0.9 | 0.00 | 0.00 | 0.00 | 64 | 1014.9 |
| 20260504005545 | 56 | 259 | 0.0 | 2.6 | 0.00 | 0.00 | 0.00 | 63 | 1014.8 |
| 20260504005045 | 57 | 262 | 0.0 | 0.9 | 0.00 | 0.00 | 0.00 | 64 | 1014.7 |